Location: Sternwarte ZA, Rosenfeld-Brittheim
(48.2889°N, 8.6789°E)
Time: 21:46:13
(UTC+02:00)

ISS - Pass Details

Date: 12 September 2019
Orbit: 411 x 421 km, 51.6° (Epoch: 19 September)

Event Time Altitude Azimuth Distance (km) Brightness Sun altitude
Exits shadow 06:16:33 - 283° (WNW) 1,683 -1.2 -7.5°
Reaches altitude 10° 06:17:04 10° 280° (W) 1,491 -1.5 -7.4°
Maximum altitude 06:20:06 32° 215° (SW) 731 -2.9 -6.9°
Drops below altitude 10° 06:23:08 10° 150° (SSE) 1,489 -0.7 -6.4°
Sets 06:25:20 0° 140° (SE) 2,351 0.4 -6.1°
